Погода Наро-Фоминск

Погода Наро-Фоминск : погода сейчас, прогноз погоды и архив. Всё, что Вы хотите узнать о погоде Наро-Фоминск!

Хотите узнать прогноз погоды Наро-Фоминск? Тогда Вам сюда: Погода Наро-Фоминск

Поиск расширенной информации на нашем сайте:

Другие новости

Новости СМИ2

Главная страница сайта

Новости сайта

03.07.2017

Напоминаем, что на нашем специализированном сайте Метеоцентр.Азия вы можете получить высокодетализированные автоматические прогнозы погоды по пунктам России, СНГ и мира в авиационном формате (включающие направление и скорость ветра, видимость, явления погоды, количество и форму облачности, нижнюю и верхнюю границу облачности).


Погода Наро-Фоминск - сегодня

Время (UTC), дата Ветер
(°,м/с) 
Видим.   Явления Облачность Т
(°С)
Тd
(°С)
f(%) Тe
(°С)
Pmin
(гПа)
dP
(гПа)
Po
(мм)
O2
(г/м3)
Тmin Tmax R s Состояние
почвы
12 20.10.17 320 (СЗ) 10 км    6/6 600 м 
[Cu med, cong]
+6.7 -0.9 58 +6  1022  -0.3  749  295           
15 20.10.17 230 (ЮЗ) 10 км    8/5 600 м средняя 
[Sc diur, vesp|Ac trans]
+4.1 -0.8 70 +4  1021.7  -0.3  748  297           
18 20.10.17 310 (СЗ) 10 км    8/8 600 м 
[Sc]
+3.5 -0.1 77 +4  1021.6  0.1  748  298    +7.4       
21 20.10.17 270 (З) 10 км    8/8 600 м 
[Sc]
+2.7 +0.6 86 +2  1021.5  -0.2  748  298           
00 21.10.17 280 (З) 10 км    9/9 600 м 
[Sc]
+2.1 +1.4 95 +3  1021  -0.5  748  299           
03 21.10.17 290 (З) 10 км    9/9 600 м 
[Sc]
+1.4 +0.8 96 +1  1020.9  -0.2  748  300  +1.4         
06 21.10.17 300 (СЗ) 10 км    10/10 600 м 
[Sc]
+2 +1 93 +1  1020.1  -0.1  748  299  +1.4        влажная 
09 21.10.17 320 (СЗ) 10 км    9/9 600 м 
[Sc]
+3.3 -1.5 71 +3  1020.6  748  298           
12 21.10.17 330 (СЗ) 10 км  {ливн. осадки}  9/9 600 м кучево-дожд. 
[Cb cap]
+3.7 -2.1 66 +2  1019.5  -1.1  747  297           
15 21.10.17 320 (СЗ) 10 км    9/9 600 м 
[Sc]
+2.1 -3.2 68 +3  1019.6  747  299      0.3     
18 21.10.17 360 (С) 10 км    10/10 600 м 
[Sc]
+0.7 -3.7 72 1020  0.3  747  301    +4.2  0.3     
21 21.10.17 350 (С) 10 км    9/9 600 м 
[Sc]
-0.9 -3.5 82 -2  1020.2  747  302           
00 22.10.17 310 (СЗ) 10 км    3/0 средняя 
[Ac trans]
-2.8 -3.6 94 -4  1020.2  -0.1  747  304           
03 22.10.17 330 (СЗ) 10 км    ясно 
-4.2 -4.6 97 -4  1020.4  747  306  -4.5         
06 22.10.17 330 (СЗ) 10 км    1/1 600 м 
[Sc]
-2.6 -3.4 94 -4  1020.6  0.4  747  304  -4.8        замёрзшая 
09 22.10.17 320 (СЗ) 10 км    6/6 600 м 
[Cu med, cong]
+0.4 -4.2 71 1020.1  -0.3  747  301           
12 22.10.17 310 (СЗ) 10 км    5/5 600 м 
[Cu med, cong]
+3.1 -6.3 50 +3  1019.1  -0.8  746  298           
15 22.10.17 240 (ЮЗ) 10 км    8/3 600 м средняя, верхняя 
[Sc diur, vesp|Ac trans|Ci fib]
-1.1 -5.2 74 -2  1019.1  -0.4  746  302           
18 22.10.17 240 (ЮЗ) 10 км    9/0 верхняя 
[Ci sp]
-1.2 -6.1 69 -2  1018.6  -0.5  746  302    +3.1       
21 22.10.17 250 (З) 10 км    ясно 
-1.2 -6.3 68 -2  1018.3  -0.3  746  302           
00 23.10.17 250 (З) 10 км    9/9 600 м 
[Sc]
-0.8 -5.8 69 -2  1018  -0.2  745  302           
03 23.10.17 260 (З) 10 км  слаб. ливневой снег  8/8 600 м кучево-дожд. 
[Cb cap]
-1.5 -3.3 88 -2  1018.4  0.3  746  302  -1.5    0.0     
06 23.10.17 280 (З) 10 км  {ливн. осадки}  9/9 600 м 
[Sc diur, vesp]
-0.4 -2.5 86 -1  1019.4  1.1  746  301  -1.5    0.0  <0.5  равномерный
сухой снег
100% 
09 23.10.17 320 (СЗ) 10 км  {ливн. осадки}  9/9 600 м 
[Sc diur, vesp]
+2 -3.5 67 +1  1020.7  1.5  748  299           
12 23.10.17 020 (С) 10 км  {ливн. осадки}  8/5 300 м кучево-дожд., средняя 
[Cb cap|Ac trans]
+1.4 -4.6 64 -1  1022.3  1.6  749  301           
Время (UTC), дата Ветер
(°,м/с) 
Видим.   Явления Облачность Т
(°С)
Тd
(°С)
f(%) Тe
(°С)
Pmin
(гПа)
dP
(гПа)
Po
(мм)
O2
(г/м3)
Тmin Tmax R s Состояние
почвы

Для получения пояснительной информации подведите курсор к названию столбца.

ПОГОДА Наро-Фоминск - архив

Всё, что Вы хотите узнать о погоде Наро-Фоминск - удобно и подробно!

Выберите нужную дату (начиная с 1 января 2015* года) и нажмите кнопку "Найти".
Будут отображены архивные сводки погоды по пункту Наро-Фоминск, начиная с указанной даты.


Отображать данные в формате CSV (для использования в таблицах Excel)


Внимание! Наш архив погоды предназначен исключительно для личного некоммерческого использования в познавательных целях. Если Вам необходимы официальные справки о состоянии погоды (для производственных, юридических, коммерческих и т.п. целей), обращайтесь в органы Росгидромета.

*Примечание: данная дата относится к архиву по метеостанциям СССР (Россия, СНГ, Балтия).
Архив по метеостанциям Зарубежной Европы и Азии (кроме Китая) хранится 10 дней, по другим регионам земного шара (Китай, Африка, Америка, Австралия, Океания) - 1 день.

Наро-Фоминск - район местоположения метеостанции


Название, широта, долгота, высота метеостанции:
Наро-Фоминск 55.4°ш. 36.7°д. 193 м над ур. моря [Российская Федерация]

Дополнительная информация

В oтличие oт бoльшинства пoгoдных сайтoв мы публикуем пoдрoбную метеoинфoрмацию в детальнoм прoфессиoнальнoм фoрмате.

Характеристики температуры и влажнoсти вoздуха измеряются на высoте 2 м в тени вдали oт зданий и деревьев.
Скoрoсть ветра измеряется на высoте 10 м (на урoвне рoста челoвека скoрoсть ветра ниже в 1.5-2 раза). Если метеoстанция нахoдится в гoрoде или в лесу, тo скoрoсть ветра занижена на 2-4 м/с пo сравнению с oткрытым местoм. Скoрoсть ветра над акватoриями крупных рек и oзёр, а также на вершинах хoлмoв на 2-5 м/с выше, чем в oбычных услoвиях.
Атмoсфернoе давление в разных тoчках местнoсти мoжет значительнo oтличаться oт давления на метеoстанции, в зависимoсти oт услoвий рельефа (при пoдъёме на 10 м давление пoнижается примернo на 1 мм рт.ст.).